Location: Alto Pass Reservoir
(37.5801°N, 89.3084°W)
Time: 13:37:17
(UTC+00:00)

NEOSSAT - Pass Details

Date: 30 September 2022
Orbit: 767 x 784 km, 98.4° (Epoch: 26 November)

Event Time Altitude Azimuth Distance (km) Brightness Sun altitude
Rises 00:35:26 0° 15° (NNE) 3,279 ? -11.2°
Reaches altitude 10° 00:37:47 10° 18° (NNE) 2,348 ? -11.6°
Maximum altitude 00:42:57 69° 102° (ESE) 839 ? -12.7°
Drops below altitude 10° 00:48:05 10° 185° (S) 2,332 ? -13.7°
Sets 00:50:24 0° 188° (S) 3,255 ? -14.1°
